Weather History for St. Petersburg, FL

Change the Weather History Date:

Thursday, January 2, 2014

  Actual Average Record
Temperature  
Mean Temperature 68 °F -  
Max Temperature 75 °F 71 °F 83 °F (1985)
Min Temperature 62 °F 56 °F 39 °F (2008)
Cooling Degree Days 4    
Growing Degree Days 18 (Base 50)    
Moisture  
Dew Point 66 °F    
Average Humidity 93    
Maximum Humidity 100    
Minimum Humidity 78    
Precipitation  
Precipitation 0.45 in - - ()
Sea Level Pressure  
Sea Level Pressure 29.92 in    
Wind  
Wind Speed 10 mph (SW)    
Max Wind Speed 21 mph    
Max Gust Speed 31 mph    
Visibility 6 miles    
Events Fog , Rain    
Averages and records for this station are not official NWS values.
T = Trace of Precipitation, MM = Missing Value Source: NWS Daily Summary

Daily Weather History Graph

Daily Weather History Graph

Search for Another Location

Airport:

Trip Planner

Search our weather history database for the weather conditions in past years. The results will help you decide how hot, cold, wet, or windy it might be!

Date:

Astronomy

Jan. 02, 2014 Rise Set
Actual Time 7:21 AM EST 5:47 PM EST
Civil Twilight 6:56 AM EST 6:13 PM EST
Nautical Twilight 6:27 AM EST 6:42 PM EST
Astronomical Twilight 5:58 AM EST 7:10 PM EST
Moon 8:11 AM EST (1/2) 7:32 PM EST (1/2)
Length of Visible Light 11h 17m
Length of Day
10h 25m
New Moon, 2% of the Moon is Illuminated
Jan 2
New Moon
Jan 7
First Quarter
Jan 15
Full
Jan 24
Last Quarter
Jan 30
New

Hourly Weather History & Observations

Time (EST) Temp. Dew Point Humidity Pressure Visibility Wind Dir Wind Speed Gust Speed Precip Events Conditions
12:53 AM 64.0 °F 63.0 °F 96% 30.04 in 8.0 mi East 9.2 mph - N/A   Overcast
1:02 AM 64.0 °F 63.0 °F 96% 30.04 in 8.0 mi East 11.5 mph - N/A   Overcast
1:53 AM 64.0 °F 64.0 °F 100% 30.02 in 5.0 mi East 8.1 mph - N/A   Overcast
2:41 AM 64.0 °F 64.0 °F 100% 29.99 in 1.8 mi ESE 10.4 mph - N/A   Overcast
2:53 AM 64.0 °F 64.0 °F 100% 29.99 in 0.5 mi ESE 6.9 mph - N/A Fog Fog
3:53 AM 64.0 °F 64.0 °F 100% 29.97 in 0.5 mi SE 8.1 mph - N/A Fog Fog
4:42 AM 64.0 °F 64.0 °F 100% 29.96 in 0.2 mi SE 8.1 mph - N/A Fog Fog
4:53 AM 64.0 °F 64.0 °F 100% 29.96 in 0.2 mi SE 6.9 mph - N/A Fog Fog
5:53 AM 64.9 °F 64.9 °F 100% 29.96 in 0.2 mi South 4.6 mph - N/A Fog Fog
6:15 AM 64.9 °F 64.9 °F 100% 29.95 in 0.5 mi South 6.9 mph - N/A Fog Fog
6:53 AM 66.0 °F 66.0 °F 100% 29.96 in 0.8 mi South 3.5 mph - N/A   Mist
7:20 AM 66.0 °F 66.0 °F 100% 29.95 in 1.0 mi South 6.9 mph - N/A   Mist
7:27 AM 66.0 °F 66.0 °F 100% 29.95 in 0.5 mi South 6.9 mph - N/A Fog Fog
7:38 AM 66.9 °F 66.9 °F 100% 29.95 in 0.2 mi South 6.9 mph - N/A Fog Fog
7:49 AM 66.2 °F 66.2 °F 100% 29.95 in 0.5 mi South 5.8 mph - N/A Fog Fog
7:53 AM 66.9 °F 66.9 °F 100% 29.95 in 0.5 mi South 5.8 mph - N/A Fog Fog
8:06 AM 66.9 °F 66.9 °F 100% 29.95 in 2.0 mi SSW 5.8 mph - N/A   Overcast
8:14 AM 66.9 °F 66.9 °F 100% 29.95 in 5.0 mi SSW 6.9 mph - N/A   Overcast
8:33 AM 66.9 °F 66.9 °F 100% 29.95 in 8.0 mi SSW 6.9 mph - N/A   Mostly Cloudy
8:53 AM 68.0 °F 68.0 °F 100% 29.95 in 10.0 mi SSW 5.8 mph - N/A   Clear
9:53 AM 73.9 °F 70.0 °F 87% 29.96 in 10.0 mi SSW 16.1 mph - N/A   Scattered Clouds
10:53 AM 75.9 °F 71.1 °F 85% 29.95 in 10.0 mi SW 15.0 mph 23.0 mph N/A   Mostly Cloudy
11:53 AM 75.9 °F 71.1 °F 85% 29.92 in 10.0 mi SW 18.4 mph 25.3 mph N/A   Scattered Clouds
12:53 PM 75.9 °F 70.0 °F 82% 29.88 in 10.0 mi SW 16.1 mph 23.0 mph N/A   Mostly Cloudy
1:53 PM 75.0 °F 70.0 °F 84% 29.85 in 10.0 mi SW 15.0 mph 21.9 mph N/A   Mostly Cloudy
2:32 PM 73.9 °F 70.0 °F 87% 29.85 in 9.0 mi WSW 17.3 mph 27.6 mph 0.00 in Rain Light Rain
2:53 PM 72.0 °F 69.1 °F 91% 29.86 in 8.0 mi WSW 15.0 mph - 0.00 in Rain Light Rain
3:05 PM 71.1 °F 66.9 °F 87% 29.85 in 10.0 mi West 15.0 mph 26.5 mph 0.00 in Rain Light Rain
3:53 PM 71.1 °F 69.1 °F 93% 29.85 in 10.0 mi WSW 11.5 mph - 0.01 in   Mostly Cloudy
4:35 PM 72.0 °F 70.0 °F 93% 29.85 in 7.0 mi West 9.2 mph - N/A   Scattered Clouds
4:53 PM 72.0 °F 70.0 °F 93% 29.85 in 8.0 mi WSW 11.5 mph - 0.00 in Rain Light Rain
5:09 PM 72.0 °F 70.0 °F 93% 29.86 in 9.0 mi WSW 8.1 mph - 0.00 in   Overcast
5:26 PM 72.0 °F 70.0 °F 93% 29.86 in 1.8 mi WSW 15.0 mph 23.0 mph 0.12 in Rain Heavy Rain
5:38 PM 72.0 °F 70.0 °F 93% 29.86 in 3.0 mi West 13.8 mph - 0.20 in Rain Light Rain
5:53 PM 71.1 °F 69.1 °F 93% 29.87 in 6.0 mi West 10.4 mph - 0.21 in Rain Light Rain
6:07 PM 71.1 °F 69.1 °F 93% 29.88 in 1.8 mi WNW 11.5 mph - 0.13 in Rain Heavy Rain
6:09 PM 70.0 °F 68.0 °F 93% 29.88 in 1.5 mi WNW 10.4 mph - 0.15 in Rain Heavy Rain
6:17 PM 70.0 °F 68.0 °F 93% 29.88 in 1.5 mi WSW 9.2 mph - 0.23 in Rain Heavy Rain
6:21 PM 70.0 °F 68.0 °F 93% 29.88 in 3.0 mi West 9.2 mph - 0.23 in Rain Light Rain
6:35 PM 70.0 °F 68.0 °F 93% 29.89 in 10.0 mi NW 8.1 mph - 0.23 in Rain Light Rain
6:53 PM 70.0 °F 68.0 °F 93% 29.89 in 10.0 mi NW 10.4 mph 17.3 mph 0.23 in   Overcast
7:09 PM 70.0 °F 66.9 °F 90% 29.89 in 10.0 mi NW 9.2 mph 17.3 mph N/A   Overcast
7:53 PM 69.1 °F 64.9 °F 87% 29.87 in 10.0 mi West 5.8 mph - N/A   Overcast
8:53 PM 69.1 °F 64.9 °F 87% 29.90 in 10.0 mi West 6.9 mph - N/A   Mostly Cloudy
9:53 PM 66.0 °F 64.0 °F 93% 29.94 in 9.0 mi NW 20.7 mph 31.1 mph 0.00 in Rain Light Rain
10:00 PM 64.9 °F 63.0 °F 93% 29.94 in 7.0 mi North 17.3 mph 31.1 mph 0.00 in Rain Light Rain
10:48 PM 62.6 °F 59.0 °F 88% 29.95 in 10.0 mi North 15.0 mph - 0.00 in   Mostly Cloudy
10:53 PM 63.0 °F 59.0 °F 87% 29.97 in 10.0 mi NNW 16.1 mph - 0.00 in   Mostly Cloudy
11:05 PM 63.0 °F 57.0 °F 81% 29.97 in 10.0 mi North 15.0 mph 23.0 mph N/A   Mostly Cloudy
11:53 PM 62.1 °F 55.0 °F 78% 29.99 in 10.0 mi North 17.3 mph 26.5 mph N/A   Overcast